Location: Unspecified
(38.9820°N, 94.4650°W)
Time: 12:53:10
(UTC-05:00)

Okean 3 - Visible Passes

Search period start: 23 April 2017 00:00
Search period end: 03 May 2017 00:00
Orbit: 577 x 604 km, 82.5° (Epoch: 21 April)

Date Brightness Start Highest point End Pass type
(mag) Time Alt. Az. Time Alt. Az. Time Alt. Az.
23 Apr 6.6 00:23:41 11° N 00:23:41 11° N 00:23:55 10° N visible
24 Apr 6.5 00:31:41 13° N 00:31:41 13° N 00:32:08 10° N visible
25 Apr 6.5 00:39:41 13° NNW 00:39:41 13° NNW 00:40:12 10° N visible
26 Apr 6.5 00:47:39 12° NNW 00:47:39 12° NNW 00:48:06 10° NNW visible
26 Apr 6.1 23:19:04 13° NNE 23:19:04 13° NNE 23:19:34 10° NNE visible
27 Apr 6.6 00:55:36 10° NW 00:55:36 10° NW 00:55:43 10° NW visible
27 Apr 5.9 23:27:00 17° NNE 23:27:00 17° NNE 23:28:02 10° NNE visible
28 Apr 5.7 23:34:55 21° N 23:34:55 21° N 23:36:24 10° N visible
29 Apr 5.6 23:42:48 24° N 23:42:48 24° N 23:44:37 10° N visible
30 Apr 5.9 22:14:08 11° NE 22:14:08 11° NE 22:14:18 10° NE visible
30 Apr 5.6 23:50:39 24° NNW 23:50:39 24° NNW 23:52:42 10° N visible
01 May 5.5 22:21:58 17° NE 22:21:58 17° NE 22:23:19 10° NE visible
01 May 5.8 23:58:29 21° NW 23:58:29 21° NW 00:00:36 10° NNW visible
02 May 4.9 22:29:46 25° NE 22:29:46 25° NE 22:32:00 10° NNE visible
